| time (UTC) | temp C | wind direction | speed KPH | gust KPH | rain 1hr cm | rain 24hr cm | rain mn cm | humidity % | barometer mb |
| 20260904143008 | 21 | 72 | 1.6 | 4.8 | 0.00 | 0.15 | 0.15 | 100 | 1013.6 |
| 20260904140005 | 22 | 139 | 4.8 | 11.3 | 0.00 | 0.15 | 0.15 | 100 | 1014.2 |
| 20260904134505 | 22 | 48 | 4.8 | 9.7 | 0.00 | 0.15 | 0.15 | 100 | 1014.5 |
| 20260904133006 | 22 | 167 | 6.4 | 12.9 | 0.00 | 0.15 | 0.15 | 100 | 1014.8 |
| 20260904131518 | 22 | 131 | 3.2 | 6.4 | 0.00 | 0.15 | 0.15 | 100 | 1014.9 |
| 20260904130002 | 22 | 66 | 9.7 | 14.5 | 0.00 | 0.15 | 0.15 | 100 | 1014.7 |
| 20260904124504 | 22 | 65 | 8.0 | 14.5 | 0.00 | 0.15 | 0.15 | 100 | 1014.9 |
| 20260904120006 | 23 | 110 | 4.8 | 4.8 | 0.00 | 0.15 | 0.15 | 100 | 1014.2 |
| 20260904114502 | 23 | 70 | 4.8 | 8.0 | 0.00 | 0.15 | 0.15 | 100 | 1014.5 |
| 20260904113004 | 23 | 73 | 4.8 | 8.0 | 0.00 | 0.15 | 0.15 | 100 | 1014.1 |
| 20260904111507 | 23 | 149 | 8.0 | 16.1 | 0.00 | 0.15 | 0.15 | 100 | 1013.9 |
| 20260904110007 | 24 | 69 | 1.6 | 1.6 | 0.00 | 0.15 | 0.15 | 100 | 1014.2 |
| 20260904101503 | 25 | 91 | 4.8 | 6.4 | 0.00 | 0.15 | 0.15 | 100 | 1013.5 |
| 20260904094503 | 25 | 65 | 1.6 | 3.2 | 0.00 | 0.15 | 0.15 | 100 | 1013.1 |
| 20260904093006 | 25 | 66 | 3.2 | 4.8 | 0.00 | 0.15 | 0.15 | 100 | 1012.8 |
| 20260904091507 | 25 | 15 | 3.2 | 6.4 | 0.00 | 0.15 | 0.15 | 100 | 1013.0 |
| 20260904090007 | 25 | 35 | 4.8 | 8.0 | 0.00 | 0.15 | 0.15 | 100 | 1012.6 |
| 20260904084507 | 25 | 110 | 6.4 | 9.7 | 0.00 | 0.15 | 0.15 | 100 | 1011.6 |
| 20260904083002 | 25 | 108 | 8.0 | 14.5 | 0.00 | 0.15 | 0.15 | 100 | 1011.8 |
| 20260904081504 | 25 | 165 | 6.4 | 16.1 | 0.00 | 0.15 | 0.15 | 100 | 1012.1 |
| 20260904073005 | 26 | 82 | 3.2 | 4.8 | 0.00 | 0.15 | 0.15 | 100 | 1011.9 |
| 20260904070007 | 26 | 24 | 4.8 | 8.0 | 0.00 | 0.15 | 0.15 | 100 | 1012.4 |
| 20260904064503 | 26 | 55 | 6.4 | 9.7 | 0.00 | 0.15 | 0.15 | 100 | 1012.6 |
| 20260904063004 | 27 | 75 | 6.4 | 8.0 | 0.00 | 0.15 | 0.15 | 100 | 1012.7 |
| 20260904061506 | 27 | 131 | 8.0 | 11.3 | 0.00 | 0.15 | 0.15 | 100 | 1011.9 |
| 20260904060007 | 27 | 90 | 9.7 | 16.1 | 0.00 | 0.18 | 0.15 | 100 | 1011.6 |
| 20260904054503 | 27 | 83 | 8.0 | 14.5 | 0.00 | 0.18 | 0.15 | 100 | 1011.7 |
| 20260904053005 | 27 | 113 | 6.4 | 14.5 | 0.00 | 0.18 | 0.15 | 99 | 1011.9 |
| 20260904051507 | 27 | 48 | 9.7 | 16.1 | 0.00 | 0.20 | 0.15 | 98 | 1011.8 |
| 20260904050003 | 27 | 141 | 6.4 | 12.9 | 0.00 | 0.20 | 0.15 | 97 | 1011.9 |
| 20260904044503 | 27 | 158 | 6.4 | 14.5 | 0.00 | 0.20 | 0.15 | 100 | 1011.8 |
| 20260904043009 | 27 | 111 | 1.6 | 4.8 | 0.00 | 0.20 | 0.15 | 100 | 1011.6 |
| 20260904040006 | 27 | 84 | 4.8 | 16.1 | 0.00 | 0.20 | 0.15 | 100 | 1011.7 |
| 20260904034505 | 27 | 108 | 4.8 | 11.3 | 0.00 | 0.20 | 0.15 | 100 | 1012.1 |
| 20260904033006 | 27 | 135 | 3.2 | 9.7 | 0.00 | 0.20 | 0.15 | 97 | 1012.5 |
| 20260904031504 | 28 | 359 | 4.8 | 14.5 | 0.00 | 0.20 | 0.15 | 94 | 1012.1 |
| 20260904030005 | 27 | 98 | 3.2 | 3.2 | 0.00 | 0.20 | 0.15 | 91 | 1012.4 |
| 20260904024507 | 28 | 39 | 1.6 | 4.8 | 0.00 | 0.20 | 0.15 | 92 | 1011.9 |
| 20260904023004 | 27 | 100 | 1.6 | 4.8 | 0.00 | 0.20 | 0.15 | 97 | 1012.8 |
| 20260904021506 | 27 | 359 | 6.4 | 12.9 | 0.00 | 0.18 | 0.13 | 98 | 1012.8 |
| 20260904020007 | 27 | 82 | 9.7 | 12.9 | 0.00 | 0.15 | 0.10 | 100 | 1013.3 |
| 20260904014501 | 27 | 125 | 8.0 | 14.5 | 0.00 | 0.15 | 0.10 | 100 | 1013.4 |
| 20260904013003 | 27 | 24 | 4.8 | 8.0 | 0.00 | 0.15 | 0.10 | 100 | 1013.6 |
| 20260904003004 | 26 | 105 | 6.4 | 12.9 | 0.00 | 0.13 | 0.08 | 100 | 1014.2 |
| 20260904000005 | 26 | 142 | 4.8 | 14.5 | 0.00 | 0.13 | 0.08 | 100 | 1013.6 |
| 20260903234506 | 26 | 136 | 4.8 | 11.3 | 0.00 | 0.13 | 0.08 | 100 | 1013.9 |
| 20260903233001 | 26 | 131 | 4.8 | 14.5 | 0.00 | 0.13 | 0.08 | 100 | 1013.6 |
| 20260903231504 | 26 | 124 | 4.8 | 9.7 | 0.00 | 0.13 | 0.08 | 100 | 1013.5 |
| 20260903230004 | 26 | 62 | 3.2 | 4.8 | 0.00 | 0.13 | 0.08 | 100 | 1013.3 |
| 20260903224507 | 25 | 75 | 4.8 | 6.4 | 0.00 | 0.13 | 0.08 | 100 | 1013.2 |
| 20260903223006 | 25 | 127 | 4.8 | 9.7 | 0.00 | 0.13 | 0.08 | 100 | 1013.5 |
| 20260903220004 | 25 | 121 | 6.4 | 14.5 | 0.00 | 0.10 | 0.05 | 100 | 1013.4 |
| 20260903214506 | 25 | 30 | 1.6 | 3.2 | 0.00 | 0.10 | 0.05 | 100 | 1013.3 |
| 20260903213005 | 25 | 149 | 1.6 | 3.2 | 0.00 | 0.10 | 0.05 | 100 | 1013.3 |
| 20260903211506 | 25 | 143 | 0.0 | 0.0 | 0.00 | 0.10 | 0.05 | 100 | 1013.0 |
| 20260903210005 | 25 | 165 | 0.0 | 0.0 | 0.00 | 0.10 | 0.05 | 100 | 1012.5 |
| 20260903204506 | 25 | 70 | 1.6 | 3.2 | 0.00 | 0.10 | 0.05 | 100 | 1012.4 |
| 20260903203007 | 25 | 35 | 3.2 | 4.8 | 0.00 | 0.10 | 0.05 | 100 | 1012.0 |
| 20260903201503 | 25 | 35 | 1.6 | 3.2 | 0.00 | 0.10 | 0.05 | 100 | 1012.2 |
| 20260903191507 | 25 | 129 | 1.6 | 1.6 | 0.00 | 0.10 | 0.05 | 100 | 1011.3 |
| 20260903190003 | 25 | 110 | 0.0 | 0.0 | 0.00 | 0.10 | 0.05 | 100 | 1011.0 |
| 20260903184504 | 25 | 143 | 0.0 | 1.6 | 0.00 | 0.10 | 0.05 | 100 | 1010.8 |
| 20260903183006 | 25 | 86 | 1.6 | 3.2 | 0.00 | 0.10 | 0.05 | 100 | 1010.8 |
| 20260903181503 | 25 | 353 | 1.6 | 3.2 | 0.00 | 0.10 | 0.05 | 100 | 1010.8 |
| 20260903180004 | 25 | 107 | 0.0 | 1.6 | 0.00 | 0.10 | 0.05 | 100 | 1010.8 |
| 20260903173004 | 25 | 349 | 0.0 | 0.0 | 0.00 | 0.08 | 0.03 | 100 | 1010.6 |
| 20260903171507 | 25 | 152 | 0.0 | 0.0 | 0.00 | 0.08 | 0.03 | 100 | 1010.7 |
| 20260903170003 | 25 | 152 | 0.0 | 0.0 | 0.00 | 0.08 | 0.03 | 100 | 1010.6 |
| 20260903164505 | 25 | 152 | 0.0 | 0.0 | 0.00 | 0.08 | 0.03 | 100 | 1010.8 |
| 20260903163004 | 25 | 117 | 3.2 | 8.0 | 0.00 | 0.08 | 0.03 | 100 | 1010.8 |
| 20260903161507 | 26 | 79 | 1.6 | 1.6 | 0.00 | 0.08 | 0.03 | 100 | 1010.8 |
| 20260903160003 | 26 | 37 | 0.0 | 1.6 | 0.00 | 0.05 | 0.00 | 100 | 1010.7 |
| 20260903151505 | 26 | 6 | 0.0 | 0.0 | 0.00 | 0.05 | 0.00 | 100 | 1010.7 |
| 20260903150004 | 26 | 343 | 4.8 | 8.0 | 0.00 | 0.05 | 0.00 | 100 | 1010.9 |
| 20260903144503 | 26 | 0 | 3.2 | 8.0 | 0.00 | 0.05 | 0.05 | 100 | 1011.2 |